Torna al catalogo

ONEWEB-0215

AttivoComunicazioniPO
NORAD 48800·PAYLOAD·🇬🇧 United Kingdom

Lanciato May 28, 2021 da Vostochny Cosmodrome

Loading…

Prossimi Passaggi (prossime 24 ore)

TLE

AggiornatoSource: CelesTrak SupGP

Epoca: Sep 14, 2026, 13:39 UTC

1 48800C 21045AK  26257.56889306 -.00002124  00000+0 -56475-2 0  2575
2 48800  87.8996 241.3655 0002209  67.5035  31.7507 13.15554698    15

Traccia ONEWEB-0215 in tempo reale con AllMySat

Download on the App Store